Airfield :
LOGIN :

Register | Disclaimer

   EN    FR    IT 

 










Legend :    VFR   Marginal VFR   IFR   Intensive IFR   Very Intensive IFR
Visi :
Ceiling :
>= 8 km
>= 3000ft
5 to 8 km
1000 to 3000 ft
1500m to 5 km
500 to 1000 ft
800 to 1500m
200 to 500 ft
< 800m
< 200 ft
Symbols :   Thunderstorms  Fog  Heavy snow  Heavy precipitations  Wind > 20 kt
SIGMETs :     Misc.  Thunderstorms  Icing  Turbulence  Mountain Waves  Volcanic Ashes







- Airport Elevation : 5600 ft
- IATA code : SMV


LSZS - Samedan

CURRENT METAR :
  • 221220Z 04012KT CAVOK 13/M10 Q1022 RMK M

EXPIRED METARs :
  • 221150Z 02014KT 350V060 CAVOK 13/M09 Q1022 RMK L
  • 221120Z 04013KT CAVOK 11/M10 Q1022 RMK K
  • 221050Z VRB02KT CAVOK 08/M07 Q1023 RMK J
  • 221020Z VRB02KT CAVOK 06/M08 Q1023 RMK I
  • 220950Z VRB02KT CAVOK 04/M08 Q1024 RMK H

TAF TAF LSZS
Valid from the 22 at 12:00 until the 22 at 21:00 UTC


221125Z 2212/2221 VRB02KT CAVOK TX13/2214Z
PROB40
TEMPO 2212/2221 01012KT
ATIS : +41 81 834 93 24
No reported NOTAMs for that airfield.



MET'MAP, your aeronautical weather chart ! - Copyright ORBIFLY December 2007 - Disclaimer

ORBIFLY MET'MAP TEAM :

Programming & Development : Alexandra Zaïnal
Concept & Development : Baudouin d'Aumeries
Co-Development & Prog : Marc-Olivier Méhu
Technical & hardware support : Manuel Goepfert

Contact : metmap@orbifly.com




SOURCES & CREDITS :

   NOAA